Terug naar catalogus

ONEWEB-0468

ActiefCommunicatiePO
NORAD 51652·PAYLOAD·🇬🇧 United Kingdom

Gelanceerd Feb 10, 2022 vanaf Guiana Space Centre

Loading…

Volgende Passages (komende 24 uur)

TLE

VersSource: CelesTrak SupGP

Epoch: Sep 14, 2026, 13:17 UTC

1 51652C 22012AG  26257.55364998 -.00002940  00000+0 -84317-2 0  2575
2 51652  87.8908  18.4784 0001886  96.1423  16.5935 13.10378109    14

Volg ONEWEB-0468 in realtime met AllMySat

Download on the App Store